Tracking 21076 objects as of 8-Aug-2020
HD Live streaming from Space Station
objects crossing your sky now

COSMOS 1464

Track COSMOS 1464 now!
10-day predictions
COSMOS 1464 is classified as:


NORAD ID: 14084
Int'l Code: 1983-048A
Perigee: 969.4 km
Apogee: 1,012.1 km
Inclination: 82.9 °
Period: 104.8 minutes
Semi major axis: 7361 km
RCS: 3.4425 m2 (large)
Launch date: May 24, 1983
Source: Commonwealth of Independent States (former USSR) (CIS)
Launch site: PLESETSK MISSILE AND SPACE COMPLEX (PKMTR)
aabbcc
Your satellite tracking list
Your tracking list is empty




NASA's NSSDC Master Catalog

Two Line Element Set (TLE):
1 14084U 83048A   20220.49021748  .00000028  00000-0  13826-4 0  9995
2 14084  82.9482 348.5246 0028981 232.8452 196.2087 13.74466025866201
Source of the keplerian elements: AFSPC